139  
ASUS44 KLIX 230710  
RWRLIX  
NEW ORLEANS REGIONAL WEATHER ROUNDUP  
NATIONAL WEATHER SERVICE NEW ORLEANS LA  
100 AM CST WED JAN 23 2019  
 
NOTE: "FAIR" INDICATES FEW OR NO CLOUDS BELOW 12,000 FEET WITH NO  
SIGNIFICANT WEATHER AND/OR S TO VISIBILITY
.  
SKY/WX - SKY CONDITION AND SIGNIFICANT WEATHER.  
TMP - AIR TEMPERATURE. DP - DEWPOINT TEMPERATURE.  
RH - RELATIVE HUMIDITY. PRES - PRESSURE.  
HI - HEAT INDEX. WCI - WIND CHILL INDEX.  
 
* THESE STATIONS ARE NOT NWS OR FAA STATIONS AND ARE NOT UNDER  
NWS QUALITY CONTROL.  
 
LAZ038-040-048-061>063-065>067-069-230800-  
SOUTHEAST LOUISIANA  
 
CITY SKY/WX TMP DP RH WIND PRES REMARKS
 
N.O. INTL ARPT MOCLDY 63 60 90 NW3 30.03F  
N.O. LAKEFRONT MOCLDY 60 57 89 E7 30.03F FOG  
N.O. DOWNTOWN* PTSUNNY 65 60 84 VRB5 30.03F  
RESERVE* CLOUDY 65 59 82 CALM 30.04S  
SLIDELL CLOUDY 62 60 93 CALM 30.04F  
BATON ROUGE CLOUDY 61 57 87 E6 30.01F  
BOOTHVILLE CLOUDY 55 54 96 E5 30.03F FOG  
BELLE CHASSE FAIR 61 60 97 SE6 30.02F  
BOGALUSA* CLOUDY 64 61 88 SE3 30.05F  
GALLIANO* FAIR 62 56 83 E3 30.02F  
NEW ROADS* PTSUNNY 61 55 82 SE8 30.00F  
GONZALES* PTSUNNY 63 59 85 SE5 30.01F  
HAMMOND* CLOUDY 59 59 100 SE6 30.03F  
HOUMA* FAIR 62 60 92 SE5 30.02S  
PORT FOURCHON* PTSUNNY 66 64 94 SE9 30.00F  
 

 
 
MSZ070-080>082-230800-  
SOUTHERN MISSISSIPPI  
 
CITY SKY/WX TMP DP RH WIND PRES REMARKS
 
MCCOMB CLOUDY 62 58 86 SE10 30.03F  
GULFPORT CLOUDY 65 63 93 SE15 30.03F  
BILOXI FAIR 66 63 88 SE14G23 30.03F  
PASCAGOULA LGT RAIN 65 61 87 VRB5 30.07F  
 

 
 
COASTAL OBSERVATIONS  
LAKE AND NEARSHORE STATIONS  
 
STATION/POSITION TIME SKY/WX TEMP WIND PRES WAVE
 
AIR SEA DIR/SP/G HT/PER  
(UTC) (F) (DEG/KT/KT) (MB) (FT/S)  
WAVELAND YACHT 0642 62 54 130/ 8/ 10 1016.9  
GRAND ISLE 0642 61 61 120/ 4/ 7 1016.5  
SOUTHWEST PASS 0636 67 47 1017.3  
NEW CANAL 0642 59 54 80/ 3/ 4 1016.5  
SHELL BEACH 0642 61 56 120/ 7/ 8 1016.8  
 
OFFSHORE STATIONS  
 
STATION/POSITION TIME SKY/WX TEMP WIND PRES WAVE
 
AIR SEA DIR/SP/G HT/PER  
(UTC) (F) (DEG/KT/KT) (MB) (FT/S)  
64 S DAUPHIN ISL 0650 140/ 21/ 27 1017.6 12/ 9  
 

 
 
 
 
CLICK HERE TO GO TO PREVIOUS BULLETINS.

The Nexlab LA Page
The Nexlab MS Page Main Text Page